User: anonymous   Login
Location: Fort Wayne
(41.1310°N, 85.1290°W)
Time: 19:12:24
(UTC-04:00)
Language:

Cosmos 2082 - Orbit

View from above orbital plane
View from above orbital plane
View from above satellite
View from above satellite

Ground track
Ground track

The orbit data is extracted from the following two-line orbital elements,

1 20624U 90046A   16236.84069649 +.00000186 +00000-0 +12218-3 0  9999
2 20624 071.0413 116.9175 0013215 125.0324 235.2041 14.14209991354932
Epoch (UTC): 23 August 2016 20:10:36
Eccentricity: 0.0013215
inclination: 71.0413°
perigee height: 835 km
apogee height: 854 km
right ascension of ascending node: 116.9175°
argument of perigee: 125.0324°
revolutions per day: 14.14209991
mean anomaly at epoch: 235.2041°
orbit number at epoch: 35493

The dashed part of the orbit path shows where the satellite is in the earth's shadow,  

DLR